This demonstration page uses our WeatherBlox Daily Observations layout. Learn more.

Left ArrowRight Arrow

30.21309, -93.2044

Hourly Observations for October 23, 2015

Temp ( °F °C ) Dew Point ( °F °C ) Humidity (%) Winds ( mph kmh ) Pressure ( in mb ) Visibility ( mi km ) Precip ( " mm )
12:15 am 00:15 Cloudy 74 23.5 72 22 91 91 SE 10 17 30.03 1017 10 16 0.00 0.00
12:35 am 00:35 Cloudy 74 23.5 72 22.1 92 92 SE 12 19 30.03 1017 10 16 0.00 0.00
12:55 am 00:55 Cloudy 74 23.5 72 22 91 91 ESE 13 20 30.03 1017 10 16 0.00 0.00
1:15 am 01:15 Cloudy 74 23.6 72 22.1 91 91 SE 15 24 30.03 1017 10 16 0.00 0.00
1:35 am 01:35 Cloudy 74 23.6 72 22.1 91 91 ESE 14 22 30.03 1017 10 16 0.00 0.00
1:55 am 01:55 Cloudy 74 23.6 72 22.1 91 91 SE 12 19 30.03 1017 10 16 0.00 0.00
2:15 am 02:15 Cloudy 74 23.5 72 22.1 92 92 SE 12 19 30.03 1017 10 16 0.00 0.00
2:35 am 02:35 Cloudy 74 23.5 72 22.1 92 92 ESE 13 20 30.03 1017 10 16 0.00 0.00
2:55 am 02:55 Cloudy 74 23.5 72 22.2 92 92 ESE 10 17 30.03 1017 10 16 0.00 0.00
3:15 am 03:15 Cloudy 74 23.5 72 22.1 92 92 SE 8 13 30.03 1017 10 16 0.00 0.00
3:35 am 03:35 Cloudy 74 23.5 72 22.1 92 92 ESE 10 17 30.00 1016 10 16 0.00 0.00
3:55 am 03:55 Cloudy 74 23.3 72 22 92 92 ESE 8 13 30.00 1016 10 16 0.00 0.00
4:15 am 04:15 Cloudy 74 23.1 72 22 94 94 ESE 7 11 30.00 1016 10 16 0.00 0.00
4:35 am 04:35 Cloudy 73 22.7 71 21.8 95 95 ESE 8 13 30.00 1016 10 16 0.00 0.00
4:55 am 04:55 Mostly Cloudy 73 22.5 71 21.7 95 95 ESE 9 15 30.00 1016 10 16 0.00 0.00
5:15 am 05:15 Mostly Cloudy 73 22.5 71 21.8 96 96 ESE 13 20 29.97 1015 10 16 0.00 0.00
6:00 am 06:00 Mostly Cloudy 73 23 72 22 94 94 E 8 13 29.97 1015 10 16 0.00 0.00
6:55 am 06:55 Cloudy 73 23 72 22 94 94 ESE 7 11 30.00 1016 10 16 0.00 0.00
9:50 am 09:50 Cloudy 77 25 73 23 89 89 ESE 13 20 30.03 1017 10 16 0.00 0.00
11:55 am 11:55 Cloudy 81 27 73 23 79 79 SE 13 20 30.03 1017 10 16 0.00 0.00
12:55 pm 12:55 Cloudy 81 27 73 23 79 79 ESE 13 20 30.03 1017 10 16 0.00 0.00
1:55 pm 13:55 Mostly Cloudy 82 28 73 23 74 74 SE 15 24 30.00 1016 10 16 0.00 0.00
3:55 pm 15:55 Mostly Cloudy 81 27 73 23 79 79 SE 15 24 29.94 1014 10 16 0.00 0.00
5:50 pm 17:50 Mostly Cloudy 79 26 72 22 79 79 SE 12 19 29.97 1015 10 16 0.00 0.00
6:50 pm 18:50 Mostly Cloudy 77 25 70 21 79 79 SE 12 19 29.97 1015 10 16 0.00 0.00
7:55 pm 19:55 Partly Cloudy 73 23 70 21 89 89 SE 7 11 30.00 1016 10 16 0.00 0.00
8:50 pm 20:50 Mostly Clear 75 24 72 22 89 89 ESE 9 15 30.00 1016 10 16 0.00 0.00
9:50 pm 21:50 Mostly Clear 75 24 72 22 89 89 ESE 8 13 30.00 1016 10 16 0.00 0.00
10:15 pm 22:15 Clear 74 23.5 71 21.5 89 89 ESE 7 11 30.00 1016 10 16 0.00 0.00
10:35 pm 22:35 Clear 74 23.5 71 21.5 89 89 ESE 8 13 30.00 1016 10 16 0.00 0.00
10:55 pm 22:55 Clear 74 23.5 71 21.6 89 89 E 8 13 30.00 1016 10 16 0.00 0.00
11:15 pm 23:15 Clear 74 23.4 71 21.6 90 90 ESE 7 11 30.00 1016 10 16 0.00 0.00
11:35 pm 23:35 Clear 74 23.3 71 21.7 91 91 ESE 9 15 30.00 1016 10 16 0.00 0.00
11:55 pm 23:55 Clear 74 23.2 71 21.7 91 91 ESE 7 11 29.97 1015 10 16 0.00 0.00

Powered by AerisWeather